Flag for France Weather past 2 weeks in Marigot, Saint Martin, France

Now
77 °F

Passing clouds.


Feels Like: 79 °F
Forecast: 76 / 82 °F
Wind: 10 mph from East

Location: Juliana Airport - Saint Maarten

Current Time: Mar 31, 2015 at 2:10:38 AM

Latest Report: Mar 31, 2015 at 1:00 AM


Visibility: N/A

Pressure: 30.01 "Hg

Humidity: 69%

Dew point: 66 °F

Location of MarigotLocation

Historic Weather in Marigot — Graph

°F

Marigot temperature yesterday

Maximum temperature yesterday: 84 °F (at 2:00 PM)
Minimum temperature yesterday: 75 °F (at 6:00 AM)
Average temperature yesterday: 80 °F

Past Weeks' High & Low Weather Summary

 TemperatureHumidityPressure
High84 °F (Mar 17, 1:00 PM)83% (Mar 16, 2:00 AM)30.18 "Hg (Mar 16, 2:00 AM)
Low73 °F (Mar 16, 2:00 AM)48% (Mar 30, 11:00 AM)29.95 "Hg (Mar 16, 4:00 AM)
Average79 °F68%30.04 "Hg
* Reported Mar 16 1:00 AM — Mar 31 1:00 AM, Marigot, Weather by CustomWeather, © 2015

Note: Actual official high and low records may vary slightly from our data, if they occured in-between our weather recording intervals... More about our weather records

Advertising

Marigot weather history for previous 24 hours

 ConditionsComfort  
Time TempWeatherWind HumidityBarometerVisibility
1:00 AM
Tue, Mar 31
77 °FPassing clouds.10 mph69%30.01 "HgN/A
12:00 AM77 °FPassing clouds.10 mph74%30.01 "HgN/A
11:00 PM
Mon, Mar 30
77 °FPassing clouds.10 mph69%30.04 "HgN/A
10:00 PM79 °FPassing clouds.13 mph61%30.04 "HgN/A
9:00 PM79 °FPassing clouds.13 mph65%30.04 "HgN/A
8:00 PM77 °FPassing clouds.14 mph69%30.04 "HgN/A
7:00 PM79 °FPassing clouds.17 mph65%30.01 "HgN/A
6:00 PM79 °FPartly sunny.13 mph70%30.01 "HgN/A
5:00 PM81 °FPartly sunny.14 mph62%30.01 "HgN/A
4:00 PM82 °FScattered clouds.10 mph55%30.01 "HgN/A
3:00 PM82 °FPassing clouds.10 mph55%30.01 "HgN/A
2:00 PM84 °FPassing clouds.9 mph48%30.04 "HgN/A
1:00 PM82 °FPassing clouds.10 mph55%30.07 "HgN/A
12:00 PM82 °FPassing clouds.12 mph55%30.07 "HgN/A
11:00 AM82 °FPassing clouds.8 mph48%30.09 "HgN/A
10:00 AM82 °FScattered clouds.9 mph55%30.09 "HgN/A
9:00 AM81 °FPassing clouds.9 mph51%30.09 "HgN/A
8:00 AM81 °FPassing clouds.8 mph54%30.09 "HgN/A
7:00 AM79 °FPassing clouds.10 mph58%30.07 "HgN/A
6:00 AM75 °FPassing clouds.7 mph65%30.07 "HgN/A
5:00 AM77 °FPassing clouds.8 mph65%30.04 "HgN/A
3:00 AM77 °FPassing clouds.8 mph61%30.04 "HgN/A
2:00 AM77 °FPassing clouds.9 mph65%30.04 "HgN/A
Weather by CustomWeather, © 2015

See weather overviewHow to use our weather pages